Home   Weather   Edmonton   Past weeks
Flag for Canada

Past Weather in Edmonton, Alberta, Canada — Yesterday and Last 2 Weeks

Now
61 °F

Cool.


Feels Like: 61 °F
Forecast: 85 / 57 °F
Wind: 1 mph from North

Location: Edmonton Municipal

Current Time: Jul 23, 2019 at 5:53:30 am

Latest Report: Jul 23, 2019 at 5:00 am


Visibility: N/A

Pressure: 30.01 "Hg (27.65 "Hg at 692m altitude)

Humidity: 93%

Dew Point: 59 °F

Location of EdmontonLocation

Past Weather in Edmonton — Graph

°F

Edmonton Temperature Yesterday

Maximum temperature yesterday: 80 °F (at 5:00 pm)
Minimum temperature yesterday: 59 °F (at 5:00 am)
Average temperature yesterday: 70 °F

High & Low Weather Summary for the Past Weeks

 TemperatureHumidityPressure
High80 °F (Jul 22, 5:00 pm)100% (Jul 21, 7:00 am)30.19 "Hg (Jul 21, 7:00 am)
Low50 °F (Jul 17, 5:00 am)36% (Jul 12, 6:00 pm)29.50 "Hg (Jul 17, 8:00 pm)
Average63 °F74%29.91 "Hg
* Reported Jul 8 4:00 am — Jul 23 4:00 am, Edmonton. Weather by CustomWeather, © 2019

Note: Actual official high and low records may vary slightly from our data, if they occured in-between our weather recording intervals... More about our weather records

Advertising

Edmonton Weather History for the Previous 24 Hours

Scroll right to see more
 ConditionsComfort  
Time TempWeatherWind HumidityBarometerVisibility
4:00 am
Tue, Jul 23
61 °FCool.2 mph92%30.01 "HgN/A
3:00 am62 °FCool.2 mph90%30.01 "HgN/A
2:00 am65 °FMild.1 mph85%30.02 "HgN/A
1:00 am66 °FMild.2 mph81%30.02 "HgN/A
12:00 am69 °FMild.5 mph74%30.02 "HgN/A
11:00 pm
Mon, Jul 22
71 °FMild.7 mph68%30.03 "HgN/A
10:00 pm73 °FMild.7 mph60%30.03 "HgN/A
9:00 pm76 °FMild.9 mph50%30.02 "HgN/A
8:00 pm76 °FMild.12 mph56%30.03 "HgN/A
7:00 pm80 °FWarm.10 mph51%30.03 "HgN/A
6:00 pm80 °FWarm.12 mph49%30.04 "HgN/A
5:00 pm80 °FWarm.12 mph49%30.05 "HgN/A
4:00 pm80 °FWarm.13 mph48%30.05 "HgN/A
3:00 pm80 °FWarm.14 mph49%30.06 "HgN/A
2:00 pm77 °FWarm.16 mph47%30.06 "HgN/A
1:00 pm74 °FMild.17 mph51%30.06 "HgN/A
12:00 pm74 °FMild.13 mph51%30.07 "HgN/A
11:00 am71 °FMild.16 mph56%30.07 "HgN/A
10:00 am68 °FMild.12 mph62%30.07 "HgN/A
9:00 am65 °FMild.13 mph64%30.07 "HgN/A
8:00 am63 °FMild.13 mph67%30.08 "HgN/A
7:00 am61 °FCool.9 mph70%30.09 "HgN/A
6:00 am60 °FCool.8 mph73%30.09 "HgN/A
5:00 am59 °FCool.7 mph77%30.09 "HgN/A
Weather by CustomWeather, © 2019

See weather overview